Location: Oklahoma City
(35.4680°N, 97.5160°W)
Time: 10:27:47
(UTC-05:00)

ISS - Visible Passes

Search period start: 16 September 2014 00:00
Search period end: 26 September 2014 00:00
Orbit: 414 x 417 km, 51.6° (Epoch: 16 September)

Date Brightness Start Highest point End Pass type
(mag) Time Alt. Az. Time Alt. Az. Time Alt. Az.
16 Sep -1.4 05:29:26 23° N 05:29:26 23° N 05:31:28 10° NNE visible
17 Sep 0.1 04:42:47 12° NE 04:42:47 12° NE 04:43:01 10° NE visible
18 Sep -0.6 05:28:57 12° N 05:28:57 12° N 05:29:45 10° N visible
